Year,Month,Day,Hour,Minute,Value (Times are PST for temperature in C)
2015,02,24,00,00,1.50
2015,02,24,00,01,1.50
2015,02,24,00,02,1.50
2015,02,24,00,03,1.50
2015,02,24,00,04,1.40
2015,02,24,00,05,1.40
2015,02,24,00,06,1.40
2015,02,24,00,07,1.40
2015,02,24,00,08,1.40
2015,02,24,00,09,1.40
2015,02,24,00,10,1.30
2015,02,24,00,11,1.30
2015,02,24,00,12,1.30
2015,02,24,00,13,1.30
2015,02,24,00,14,1.30
2015,02,24,00,15,1.30
2015,02,24,00,16,1.30
2015,02,24,00,17,1.30
2015,02,24,00,18,1.30
2015,02,24,00,19,1.30
2015,02,24,00,20,1.30
2015,02,24,00,21,1.30
2015,02,24,00,22,1.30
2015,02,24,00,23,1.40
2015,02,24,00,24,1.40
2015,02,24,00,25,1.40
2015,02,24,00,26,1.40
2015,02,24,00,27,1.40
2015,02,24,00,28,1.40
2015,02,24,00,29,1.40
2015,02,24,00,30,1.40
2015,02,24,00,31,1.40
2015,02,24,00,32,1.40
2015,02,24,00,33,1.50
2015,02,24,00,34,1.50
2015,02,24,00,35,1.50
2015,02,24,00,36,1.50
2015,02,24,00,37,1.50
2015,02,24,00,38,1.50
2015,02,24,00,39,1.60
2015,02,24,00,40,1.60
2015,02,24,00,41,1.60
2015,02,24,00,42,1.60
2015,02,24,00,43,1.50
2015,02,24,00,44,1.50
2015,02,24,00,45,1.50
2015,02,24,00,46,1.50
2015,02,24,00,47,1.50
2015,02,24,00,48,1.50
2015,02,24,00,49,1.50
2015,02,24,00,50,1.50
2015,02,24,00,51,1.40
2015,02,24,00,52,1.40
2015,02,24,00,53,1.40
2015,02,24,00,54,1.40
2015,02,24,00,55,1.40
2015,02,24,00,56,1.40
2015,02,24,00,57,1.40
2015,02,24,00,58,1.40
2015,02,24,00,59,1.40
2015,02,24,01,00,1.40
2015,02,24,01,01,1.40
2015,02,24,01,02,1.40
2015,02,24,01,03,1.40
2015,02,24,01,04,1.30
2015,02,24,01,05,1.30
2015,02,24,01,06,1.40
2015,02,24,01,07,1.40
2015,02,24,01,08,1.40
2015,02,24,01,09,1.40
2015,02,24,01,10,1.40
2015,02,24,01,11,1.40
2015,02,24,01,12,1.40
2015,02,24,01,13,1.50
2015,02,24,01,14,1.50
2015,02,24,01,15,1.50
2015,02,24,01,16,1.50
2015,02,24,01,17,1.50
2015,02,24,01,18,1.50
2015,02,24,01,19,1.50
2015,02,24,01,20,1.50
2015,02,24,01,21,1.50
2015,02,24,01,22,1.50
2015,02,24,01,23,1.50
2015,02,24,01,24,1.50
2015,02,24,01,25,1.50
2015,02,24,01,26,1.50
2015,02,24,01,27,1.50
2015,02,24,01,28,1.50
2015,02,24,01,29,1.50
2015,02,24,01,30,1.50
2015,02,24,01,31,1.50
2015,02,24,01,32,1.50
2015,02,24,01,33,1.50
2015,02,24,01,34,1.50
2015,02,24,01,35,1.50
2015,02,24,01,36,1.50
2015,02,24,01,37,1.50
2015,02,24,01,38,1.50
2015,02,24,01,39,1.50
2015,02,24,01,40,1.50
2015,02,24,01,41,1.50
2015,02,24,01,42,1.50
2015,02,24,01,43,1.50
2015,02,24,01,44,1.50
2015,02,24,01,45,1.50
2015,02,24,01,46,1.50
2015,02,24,01,47,1.50
2015,02,24,01,48,1.50
2015,02,24,01,49,1.50
2015,02,24,01,50,1.50
2015,02,24,01,51,1.50
2015,02,24,01,52,1.50
2015,02,24,01,53,1.40
2015,02,24,01,54,1.40
2015,02,24,01,55,1.40
2015,02,24,01,56,1.40
2015,02,24,01,57,1.40
2015,02,24,01,58,1.40
2015,02,24,01,59,1.40
2015,02,24,02,00,1.40
2015,02,24,02,01,1.40
2015,02,24,02,02,1.40
2015,02,24,02,03,1.40
2015,02,24,02,04,1.40
2015,02,24,02,05,1.40
2015,02,24,02,06,1.40
2015,02,24,02,07,1.40
2015,02,24,02,08,1.50
2015,02,24,02,09,1.50
2015,02,24,02,10,1.50
2015,02,24,02,11,1.50
2015,02,24,02,12,1.60
2015,02,24,02,13,1.60
2015,02,24,02,14,1.60
2015,02,24,02,15,1.60
2015,02,24,02,16,1.60
2015,02,24,02,17,1.60
2015,02,24,02,18,1.60
2015,02,24,02,19,1.60
2015,02,24,02,20,1.60
2015,02,24,02,21,1.60
2015,02,24,02,22,1.50
2015,02,24,02,23,1.50
2015,02,24,02,24,1.50
2015,02,24,02,25,1.50
2015,02,24,02,26,1.50
2015,02,24,02,27,1.40
2015,02,24,02,28,1.40
2015,02,24,02,29,1.40
2015,02,24,02,30,1.40
2015,02,24,02,31,1.40
2015,02,24,02,32,1.40
2015,02,24,02,33,1.40
2015,02,24,02,34,1.40
2015,02,24,02,35,1.40
2015,02,24,02,36,1.30
2015,02,24,02,37,1.30
2015,02,24,02,38,1.30
2015,02,24,02,39,1.30
2015,02,24,02,40,1.30
2015,02,24,02,41,1.30
2015,02,24,02,42,1.30
2015,02,24,02,43,1.30
2015,02,24,02,44,1.30
2015,02,24,02,45,1.30
2015,02,24,02,46,1.30
2015,02,24,02,47,1.30
2015,02,24,02,48,1.30
2015,02,24,02,49,1.30
2015,02,24,02,50,1.30
2015,02,24,02,51,1.20
2015,02,24,02,52,1.20
2015,02,24,02,53,1.20
2015,02,24,02,54,1.10
2015,02,24,02,55,1.10
2015,02,24,02,56,1.10
2015,02,24,02,57,1.10
2015,02,24,02,58,1.00
2015,02,24,02,59,1.00
2015,02,24,03,00,1.00
2015,02,24,03,01,1.00
2015,02,24,03,02,0.90
2015,02,24,03,03,0.90
2015,02,24,03,04,0.90
2015,02,24,03,05,0.90
2015,02,24,03,06,0.90
2015,02,24,03,07,0.90
2015,02,24,03,08,0.90
2015,02,24,03,09,0.90
2015,02,24,03,10,0.90
2015,02,24,03,11,0.90
2015,02,24,03,12,0.90
2015,02,24,03,13,0.90
2015,02,24,03,14,0.90
2015,02,24,03,15,0.90
2015,02,24,03,16,0.90
2015,02,24,03,17,0.90
2015,02,24,03,18,0.90
2015,02,24,03,19,0.90
2015,02,24,03,20,1.00
2015,02,24,03,21,1.00
2015,02,24,03,22,1.00
2015,02,24,03,23,1.00
2015,02,24,03,24,1.00
2015,02,24,03,25,1.00
2015,02,24,03,26,1.00
2015,02,24,03,27,0.90
2015,02,24,03,28,0.90
2015,02,24,03,29,0.90
2015,02,24,03,30,0.90
2015,02,24,03,31,0.90
2015,02,24,03,32,0.90
2015,02,24,03,33,0.90
2015,02,24,03,34,1.00
2015,02,24,03,35,1.00
2015,02,24,03,36,1.00
2015,02,24,03,37,1.00
2015,02,24,03,38,1.00
2015,02,24,03,39,1.00
2015,02,24,03,40,1.00
2015,02,24,03,41,1.00
2015,02,24,03,42,0.90
2015,02,24,03,43,0.90
2015,02,24,03,44,0.90
2015,02,24,03,45,0.90
2015,02,24,03,46,0.90
2015,02,24,03,47,0.90
2015,02,24,03,48,1.00
2015,02,24,03,49,1.00
2015,02,24,03,50,1.00
2015,02,24,03,51,1.00
2015,02,24,03,52,1.00
2015,02,24,03,53,1.00
2015,02,24,03,54,1.00
2015,02,24,03,55,0.90
2015,02,24,03,56,0.90
2015,02,24,03,57,0.80
2015,02,24,03,58,0.80
2015,02,24,03,59,0.80
2015,02,24,04,00,0.80
2015,02,24,04,01,0.80
2015,02,24,04,02,0.70
2015,02,24,04,03,0.70
2015,02,24,04,04,0.70
2015,02,24,04,05,0.60
2015,02,24,04,06,0.60
2015,02,24,04,07,0.60
2015,02,24,04,08,0.60
2015,02,24,04,09,0.60
2015,02,24,04,10,0.60
2015,02,24,04,11,0.60
2015,02,24,04,12,0.60
2015,02,24,04,13,0.60
2015,02,24,04,14,0.50
2015,02,24,04,15,0.50
2015,02,24,04,16,0.50
2015,02,24,04,17,0.50
2015,02,24,04,18,0.50
2015,02,24,04,19,0.50
2015,02,24,04,20,0.50
2015,02,24,04,21,0.50
2015,02,24,04,22,0.50
2015,02,24,04,23,0.50
2015,02,24,04,24,0.50
2015,02,24,04,25,0.50
2015,02,24,04,26,0.60
2015,02,24,04,27,0.60
2015,02,24,04,28,0.60
2015,02,24,04,29,0.60
2015,02,24,04,30,0.60
2015,02,24,04,31,0.60
2015,02,24,04,32,0.60
2015,02,24,04,33,0.70
2015,02,24,04,34,0.70
2015,02,24,04,35,0.70
2015,02,24,04,36,0.60
2015,02,24,04,37,0.60
2015,02,24,04,38,0.60
2015,02,24,04,39,0.60
2015,02,24,04,40,0.60
2015,02,24,04,41,0.50
2015,02,24,04,42,0.50
2015,02,24,04,43,0.50
2015,02,24,04,44,0.50
2015,02,24,04,45,0.50
2015,02,24,04,46,0.50
2015,02,24,04,47,0.40
2015,02,24,04,48,0.40
2015,02,24,04,49,0.40
2015,02,24,04,50,0.40
2015,02,24,04,51,0.40
2015,02,24,04,52,0.40
2015,02,24,04,53,0.40
2015,02,24,04,54,0.30
2015,02,24,04,55,0.30
2015,02,24,04,56,0.30
2015,02,24,04,57,0.30
2015,02,24,04,58,0.20
2015,02,24,04,59,0.20
2015,02,24,05,00,0.20
2015,02,24,05,01,0.20
2015,02,24,05,02,0.20
2015,02,24,05,03,0.20
2015,02,24,05,04,0.20
2015,02,24,05,05,0.20
2015,02,24,05,06,0.20
2015,02,24,05,07,0.20
2015,02,24,05,08,0.20
2015,02,24,05,09,0.20
2015,02,24,05,10,0.20
2015,02,24,05,11,0.10
2015,02,24,05,12,0.10
2015,02,24,05,13,0.10
2015,02,24,05,14,0.10
2015,02,24,05,15,0.10
2015,02,24,05,16,0.00
2015,02,24,05,17,-0.10
2015,02,24,05,18,-0.10
2015,02,24,05,19,-0.10
2015,02,24,05,20,-0.10
2015,02,24,05,21,-0.10
2015,02,24,05,22,-0.10
2015,02,24,05,23,-0.10
2015,02,24,05,24,-0.10
2015,02,24,05,25,-0.10
2015,02,24,05,26,0.00
2015,02,24,05,27,0.10
2015,02,24,05,28,0.10
2015,02,24,05,29,0.10
2015,02,24,05,30,0.10
2015,02,24,05,31,0.10
2015,02,24,05,32,0.10
2015,02,24,05,33,0.10
2015,02,24,05,34,0.10
2015,02,24,05,35,0.10
2015,02,24,05,36,0.10
2015,02,24,05,37,0.10
2015,02,24,05,38,0.10
2015,02,24,05,39,0.10
2015,02,24,05,40,0.00
2015,02,24,05,41,-0.10
2015,02,24,05,42,-0.10
2015,02,24,05,43,-0.10
2015,02,24,05,44,-0.10
2015,02,24,05,45,-0.10
2015,02,24,05,46,-0.10
2015,02,24,05,47,-0.10
2015,02,24,05,48,-0.10
2015,02,24,05,49,-0.10
2015,02,24,05,50,-0.10
2015,02,24,05,51,-0.10
2015,02,24,05,52,-0.10
2015,02,24,05,53,-0.10
2015,02,24,05,54,-0.10
2015,02,24,05,55,-0.10
2015,02,24,05,56,-0.10
2015,02,24,05,57,-0.10
2015,02,24,05,58,-0.10
2015,02,24,05,59,-0.10
2015,02,24,06,00,-0.10
2015,02,24,06,01,-0.10
2015,02,24,06,02,-0.10
2015,02,24,06,03,-0.20
2015,02,24,06,04,-0.20
2015,02,24,06,05,-0.20
2015,02,24,06,06,-0.20
2015,02,24,06,07,-0.20
2015,02,24,06,08,-0.20
2015,02,24,06,09,-0.20
2015,02,24,06,10,-0.20
2015,02,24,06,11,-0.20
2015,02,24,06,12,-0.20
2015,02,24,06,13,-0.20
2015,02,24,06,14,-0.20
2015,02,24,06,15,-0.20
2015,02,24,06,16,-0.20
2015,02,24,06,17,-0.20
2015,02,24,06,18,-0.20
2015,02,24,06,19,-0.20
2015,02,24,06,20,-0.20
2015,02,24,06,21,-0.20
2015,02,24,06,22,-0.30
2015,02,24,06,23,-0.30
2015,02,24,06,24,-0.30
2015,02,24,06,25,-0.30
2015,02,24,06,26,-0.40
2015,02,24,06,27,-0.40
2015,02,24,06,28,-0.40
2015,02,24,06,29,-0.40
2015,02,24,06,30,-0.40
2015,02,24,06,31,-0.40
2015,02,24,06,32,-0.40
2015,02,24,06,33,-0.40
2015,02,24,06,34,-0.40
2015,02,24,06,35,-0.40
2015,02,24,06,36,-0.40
2015,02,24,06,37,-0.30
2015,02,24,06,38,-0.40
2015,02,24,06,39,-0.40
2015,02,24,06,40,-0.40
2015,02,24,06,41,-0.40
2015,02,24,06,42,-0.40
2015,02,24,06,43,-0.40
2015,02,24,06,44,-0.40
2015,02,24,06,45,-0.40
2015,02,24,06,46,-0.40
2015,02,24,06,47,-0.50
2015,02,24,06,48,-0.60
2015,02,24,06,49,-0.60
2015,02,24,06,50,-0.60
2015,02,24,06,51,-0.60
2015,02,24,06,52,-0.60
2015,02,24,06,53,-0.60
2015,02,24,06,54,-0.60
2015,02,24,06,55,-0.60
2015,02,24,06,56,-0.60
2015,02,24,06,57,-0.60
2015,02,24,06,58,-0.70
2015,02,24,06,59,-0.70
2015,02,24,07,00,-0.70
2015,02,24,07,01,-0.70
2015,02,24,07,02,-0.70
2015,02,24,07,03,-0.70
2015,02,24,07,04,-0.70
2015,02,24,07,05,-0.70
2015,02,24,07,06,-0.70
2015,02,24,07,07,-0.60
2015,02,24,07,08,-0.60
2015,02,24,07,09,-0.60
2015,02,24,07,10,-0.60
2015,02,24,07,11,-0.60
2015,02,24,07,12,-0.60
2015,02,24,07,13,-0.60
2015,02,24,07,14,-0.60
2015,02,24,07,15,-0.60
2015,02,24,07,16,-0.60
2015,02,24,07,17,-0.60
2015,02,24,07,18,-0.60
2015,02,24,07,19,-0.60
2015,02,24,07,20,-0.60
2015,02,24,07,21,-0.60
2015,02,24,07,22,-0.60
2015,02,24,07,23,-0.60
2015,02,24,07,24,-0.70
2015,02,24,07,25,-0.70
2015,02,24,07,26,-0.70
2015,02,24,07,27,-0.70
2015,02,24,07,28,-0.70
2015,02,24,07,29,-0.70
2015,02,24,07,30,-0.60
2015,02,24,07,31,-0.60
2015,02,24,07,32,-0.60
2015,02,24,07,33,-0.50
2015,02,24,07,34,-0.40
2015,02,24,07,35,-0.40
2015,02,24,07,36,-0.30
2015,02,24,07,37,-0.30
2015,02,24,07,38,-0.20
2015,02,24,07,39,-0.10
2015,02,24,07,40,-0.10
2015,02,24,07,41,-0.10
2015,02,24,07,42,-0.10
2015,02,24,07,43,-0.10
2015,02,24,07,44,-0.10
2015,02,24,07,45,-0.10
2015,02,24,07,46,-0.10
2015,02,24,07,47,-0.10
2015,02,24,07,48,-0.10
2015,02,24,07,49,0.00
2015,02,24,07,50,0.10
2015,02,24,07,51,0.10
2015,02,24,07,52,0.10
2015,02,24,07,53,0.20
2015,02,24,07,54,0.20
2015,02,24,07,55,0.20
2015,02,24,07,56,0.30
2015,02,24,07,57,0.30
2015,02,24,07,58,0.30
2015,02,24,07,59,0.40
2015,02,24,08,00,0.40
2015,02,24,08,01,0.40
2015,02,24,08,02,0.40
2015,02,24,08,03,0.40
2015,02,24,08,04,0.50
2015,02,24,08,05,0.50
2015,02,24,08,06,0.50
2015,02,24,08,07,0.60
2015,02,24,08,08,0.70
2015,02,24,08,09,0.80
2015,02,24,08,10,0.80
2015,02,24,08,11,0.80
2015,02,24,08,12,0.90
2015,02,24,08,13,1.00
2015,02,24,08,14,1.00
2015,02,24,08,15,1.10
2015,02,24,08,16,1.10
2015,02,24,08,17,1.20
2015,02,24,08,18,1.20
2015,02,24,08,19,1.30
2015,02,24,08,20,1.30
2015,02,24,08,21,1.30
2015,02,24,08,22,1.40
2015,02,24,08,23,1.40
2015,02,24,08,24,1.40
2015,02,24,08,25,1.50
2015,02,24,08,26,1.50
2015,02,24,08,27,1.60
2015,02,24,08,28,1.60
2015,02,24,08,29,1.70
2015,02,24,08,30,1.80
2015,02,24,08,31,1.80
2015,02,24,08,32,1.80
2015,02,24,08,33,1.90
2015,02,24,08,34,1.90
2015,02,24,08,35,1.90
2015,02,24,08,36,1.90
2015,02,24,08,37,1.90
2015,02,24,08,38,1.90
2015,02,24,08,39,1.90
2015,02,24,08,40,2.00
2015,02,24,08,41,2.00
2015,02,24,08,42,2.00
2015,02,24,08,43,2.00
2015,02,24,08,44,2.10
2015,02,24,08,45,2.10
2015,02,24,08,46,2.20
2015,02,24,08,47,2.20
2015,02,24,08,48,2.30
2015,02,24,08,49,2.40
2015,02,24,08,50,2.50
2015,02,24,08,51,2.50
2015,02,24,08,52,2.60
2015,02,24,08,53,2.70
2015,02,24,08,54,2.80
2015,02,24,08,55,2.80
2015,02,24,08,56,2.90
2015,02,24,08,57,3.00
2015,02,24,08,58,3.10
2015,02,24,08,59,3.20
2015,02,24,09,00,3.30
2015,02,24,09,01,3.40
2015,02,24,09,02,3.50
2015,02,24,09,03,3.60
2015,02,24,09,04,3.80
2015,02,24,09,05,3.80
2015,02,24,09,06,3.90
2015,02,24,09,07,3.90
2015,02,24,09,08,4.00
2015,02,24,09,09,4.00
2015,02,24,09,10,4.10
2015,02,24,09,11,4.10
2015,02,24,09,12,4.20
2015,02,24,09,13,4.20
2015,02,24,09,14,4.30
2015,02,24,09,15,4.40
2015,02,24,09,16,4.40
2015,02,24,09,17,4.50
2015,02,24,09,18,4.50
2015,02,24,09,19,4.50
2015,02,24,09,20,4.60
2015,02,24,09,21,4.60
2015,02,24,09,22,4.60
2015,02,24,09,23,4.60
2015,02,24,09,24,4.70
2015,02,24,09,25,4.70
2015,02,24,09,26,4.80
2015,02,24,09,27,4.80
2015,02,24,09,28,4.90
2015,02,24,09,29,5.00
2015,02,24,09,30,5.10
2015,02,24,09,31,5.10
2015,02,24,09,32,5.10
2015,02,24,09,33,5.20
2015,02,24,09,34,5.30
2015,02,24,09,35,5.30
2015,02,24,09,36,5.40
2015,02,24,09,37,5.50
2015,02,24,09,38,5.60
2015,02,24,09,39,5.60
2015,02,24,09,40,5.70
2015,02,24,09,41,5.70
2015,02,24,09,42,5.80
2015,02,24,09,43,5.90
2015,02,24,09,44,6.00
2015,02,24,09,45,6.10
2015,02,24,09,46,6.20
2015,02,24,09,47,6.30
2015,02,24,09,48,6.40
2015,02,24,09,49,6.50
2015,02,24,09,50,6.60
2015,02,24,09,51,6.70
2015,02,24,09,52,6.80
2015,02,24,09,53,6.90
2015,02,24,09,54,7.00
2015,02,24,09,55,7.10
2015,02,24,09,56,7.20
2015,02,24,09,57,7.30
2015,02,24,09,58,7.40
2015,02,24,09,59,7.50
2015,02,24,10,00,7.60
2015,02,24,10,01,7.60
2015,02,24,10,02,7.80
2015,02,24,10,03,7.90
2015,02,24,10,04,8.00
2015,02,24,10,05,8.00
2015,02,24,10,06,8.10
2015,02,24,10,07,8.20
2015,02,24,10,08,8.30
2015,02,24,10,09,8.30
2015,02,24,10,10,8.20
2015,02,24,10,11,8.30
2015,02,24,10,12,8.30
2015,02,24,10,13,8.20
2015,02,24,10,14,8.20
2015,02,24,10,15,8.20
2015,02,24,10,16,8.20
2015,02,24,10,17,8.30
2015,02,24,10,18,8.40
2015,02,24,10,19,8.50
2015,02,24,10,20,8.50
2015,02,24,10,21,8.60
2015,02,24,10,22,8.60
2015,02,24,10,23,8.70
2015,02,24,10,24,8.70
2015,02,24,10,25,8.70
2015,02,24,10,26,8.70
2015,02,24,10,27,8.70
2015,02,24,10,28,8.70
2015,02,24,10,29,8.70
2015,02,24,10,30,8.70
2015,02,24,10,31,8.70
2015,02,24,10,32,8.60
2015,02,24,10,33,8.60
2015,02,24,10,34,8.60
2015,02,24,10,35,8.60
2015,02,24,10,36,8.70
2015,02,24,10,37,8.70
2015,02,24,10,38,8.70
2015,02,24,10,39,8.70
2015,02,24,10,40,8.70
2015,02,24,10,41,8.70
2015,02,24,10,42,8.70
2015,02,24,10,43,8.70
2015,02,24,10,44,8.70
2015,02,24,10,45,8.70
2015,02,24,10,46,8.70
2015,02,24,10,47,8.80
2015,02,24,10,48,8.80
2015,02,24,10,49,8.90
2015,02,24,10,50,8.90
2015,02,24,10,51,9.00
2015,02,24,10,52,9.00
2015,02,24,10,53,9.00
2015,02,24,10,54,9.00
2015,02,24,10,55,9.10
2015,02,24,10,56,9.10
2015,02,24,10,57,9.10
2015,02,24,10,58,9.10
2015,02,24,10,59,9.10
2015,02,24,11,00,9.20
2015,02,24,11,01,9.20
2015,02,24,11,02,9.20
2015,02,24,11,03,9.20
2015,02,24,11,04,9.20
2015,02,24,11,05,9.20
2015,02,24,11,06,9.20
2015,02,24,11,07,9.20
2015,02,24,11,08,9.10
2015,02,24,11,09,9.10
2015,02,24,11,10,9.10
2015,02,24,11,11,9.10
2015,02,24,11,12,9.10
2015,02,24,11,13,9.10
2015,02,24,11,14,9.20
2015,02,24,11,15,9.20
2015,02,24,11,16,9.20
2015,02,24,11,17,9.20
2015,02,24,11,18,9.20
2015,02,24,11,19,9.20
2015,02,24,11,20,9.30
2015,02,24,11,21,9.30
2015,02,24,11,22,9.30
2015,02,24,11,23,9.30
2015,02,24,11,24,9.30
2015,02,24,11,25,9.30
2015,02,24,11,26,9.40
2015,02,24,11,27,9.40
2015,02,24,11,28,9.40
2015,02,24,11,29,9.50
2015,02,24,11,30,9.50
2015,02,24,11,31,9.50
2015,02,24,11,32,9.50
2015,02,24,11,33,9.50
2015,02,24,11,34,9.60
2015,02,24,11,35,9.60
2015,02,24,11,36,9.70
2015,02,24,11,37,9.70
2015,02,24,11,38,9.70
2015,02,24,11,39,9.70
2015,02,24,11,40,9.70
2015,02,24,11,41,9.70
2015,02,24,11,42,9.70
2015,02,24,11,43,9.70
2015,02,24,11,44,9.70
2015,02,24,11,45,9.70
2015,02,24,11,46,9.70
2015,02,24,11,47,9.70
2015,02,24,11,48,9.70
2015,02,24,11,49,9.70
2015,02,24,11,50,9.70
2015,02,24,11,51,9.80
2015,02,24,11,52,9.80
2015,02,24,11,53,9.90
2015,02,24,11,54,9.90
2015,02,24,11,55,10.00
2015,02,24,11,56,10.10
2015,02,24,11,57,10.10
2015,02,24,11,58,10.10
2015,02,24,11,59,10.10
2015,02,24,12,00,10.10
2015,02,24,12,01,10.20
2015,02,24,12,02,10.20
2015,02,24,12,03,10.20
2015,02,24,12,04,10.20
2015,02,24,12,05,10.20
2015,02,24,12,06,10.20
2015,02,24,12,07,10.20
2015,02,24,12,08,10.20
2015,02,24,12,09,10.20
2015,02,24,12,10,10.30
2015,02,24,12,11,10.30
2015,02,24,12,12,10.30
2015,02,24,12,13,10.20
2015,02,24,12,14,10.20
2015,02,24,12,15,10.20
2015,02,24,12,16,10.20
2015,02,24,12,17,10.20
2015,02,24,12,18,10.20
2015,02,24,12,19,10.20
2015,02,24,12,20,10.20
2015,02,24,12,21,10.20
2015,02,24,12,22,10.20
2015,02,24,12,23,10.20
2015,02,24,12,24,10.20
2015,02,24,12,25,10.30
2015,02,24,12,26,10.30
2015,02,24,12,27,10.30
2015,02,24,12,28,10.40
2015,02,24,12,29,10.40
2015,02,24,12,30,10.40
2015,02,24,12,31,10.40
2015,02,24,12,32,10.40
2015,02,24,12,33,10.40
2015,02,24,12,34,10.40
2015,02,24,12,35,10.40
2015,02,24,12,36,10.40
2015,02,24,12,37,10.40
2015,02,24,12,38,10.50
2015,02,24,12,39,10.60
2015,02,24,12,40,10.60
2015,02,24,12,41,10.70
2015,02,24,12,42,10.70
2015,02,24,12,43,10.80
2015,02,24,12,44,10.90
2015,02,24,12,45,10.90
2015,02,24,12,46,11.00
2015,02,24,12,47,11.10
2015,02,24,12,48,11.10
2015,02,24,12,49,11.10
2015,02,24,12,50,11.10
2015,02,24,12,51,11.20
2015,02,24,12,52,11.30
2015,02,24,12,53,11.40
2015,02,24,12,54,11.40
2015,02,24,12,55,11.40
2015,02,24,12,56,11.50
2015,02,24,12,57,11.60
2015,02,24,12,58,11.60
2015,02,24,12,59,11.60
2015,02,24,13,00,11.60
2015,02,24,13,01,11.60
2015,02,24,13,02,11.60
2015,02,24,13,03,11.60
2015,02,24,13,04,11.60
2015,02,24,13,05,11.60
2015,02,24,13,06,11.60
2015,02,24,13,07,11.60
2015,02,24,13,08,11.60
2015,02,24,13,09,11.70
2015,02,24,13,10,11.80
2015,02,24,13,11,11.80
2015,02,24,13,12,11.80
2015,02,24,13,13,11.80
2015,02,24,13,14,11.90
2015,02,24,13,15,11.90
2015,02,24,13,16,11.90
2015,02,24,13,17,12.00
2015,02,24,13,18,12.00
2015,02,24,13,19,12.00
2015,02,24,13,20,12.00
2015,02,24,13,21,12.00
2015,02,24,13,22,12.10
2015,02,24,13,23,12.10
2015,02,24,13,24,12.10
2015,02,24,13,25,12.00
2015,02,24,13,26,11.90
2015,02,24,13,27,11.90
2015,02,24,13,28,11.90
2015,02,24,13,29,11.90
2015,02,24,13,30,11.90
2015,02,24,13,31,11.90
2015,02,24,13,32,11.90
2015,02,24,13,33,11.90
2015,02,24,13,34,11.90
2015,02,24,13,35,12.00
2015,02,24,13,36,12.00
2015,02,24,13,37,12.00
2015,02,24,13,38,11.90
2015,02,24,13,39,11.90
2015,02,24,13,40,11.80
2015,02,24,13,41,11.80
2015,02,24,13,42,11.80
2015,02,24,13,43,11.80
2015,02,24,13,44,11.70
2015,02,24,13,45,11.60
2015,02,24,13,46,11.60
2015,02,24,13,47,11.60
2015,02,24,13,48,11.60
2015,02,24,13,49,11.50
2015,02,24,13,50,11.40
2015,02,24,13,51,11.40
2015,02,24,13,52,11.30
2015,02,24,13,53,11.30
2015,02,24,13,54,11.20
2015,02,24,13,55,11.10
2015,02,24,13,56,11.00
2015,02,24,13,57,10.90
2015,02,24,13,58,10.90
2015,02,24,13,59,10.90
2015,02,24,14,00,10.90
2015,02,24,14,01,10.80
2015,02,24,14,02,10.80
2015,02,24,14,03,10.80
2015,02,24,14,04,10.80
2015,02,24,14,05,10.90
2015,02,24,14,06,10.90
2015,02,24,14,07,10.90
2015,02,24,14,08,10.90
2015,02,24,14,09,10.90
2015,02,24,14,10,10.90
2015,02,24,14,11,10.90
2015,02,24,14,12,10.90
2015,02,24,14,13,10.90
2015,02,24,14,14,11.10
2015,02,24,14,15,11.10
2015,02,24,14,16,11.10
2015,02,24,14,17,11.10
2015,02,24,14,18,11.20
2015,02,24,14,19,11.20
2015,02,24,14,20,11.20
2015,02,24,14,21,11.10
2015,02,24,14,22,11.00
2015,02,24,14,23,10.80
2015,02,24,14,24,10.70
2015,02,24,14,25,10.60
2015,02,24,14,26,10.60
2015,02,24,14,27,10.60
2015,02,24,14,28,10.50
2015,02,24,14,29,10.40
2015,02,24,14,30,10.40
2015,02,24,14,31,10.40
2015,02,24,14,32,10.40
2015,02,24,14,33,10.40
2015,02,24,14,34,10.40
2015,02,24,14,35,10.30
2015,02,24,14,36,10.20
2015,02,24,14,37,10.20
2015,02,24,14,38,10.10
2015,02,24,14,39,10.00
2015,02,24,14,40,9.90
2015,02,24,14,41,9.80
2015,02,24,14,42,9.80
2015,02,24,14,43,9.80
2015,02,24,14,44,9.80
2015,02,24,14,45,9.80
2015,02,24,14,46,9.70
2015,02,24,14,47,9.80
2015,02,24,14,48,9.80
2015,02,24,14,49,9.80
2015,02,24,14,50,9.80
2015,02,24,14,51,9.80
2015,02,24,14,52,9.80
2015,02,24,14,53,9.90
2015,02,24,14,54,9.90
2015,02,24,14,55,9.90
2015,02,24,14,56,9.90
2015,02,24,14,57,9.90
2015,02,24,14,58,9.90
2015,02,24,14,59,9.90
2015,02,24,15,00,9.80
2015,02,24,15,01,9.70
2015,02,24,15,02,9.70
2015,02,24,15,03,9.70
2015,02,24,15,04,9.60
2015,02,24,15,05,9.60
2015,02,24,15,06,9.60
2015,02,24,15,07,9.60
2015,02,24,15,08,9.50
2015,02,24,15,09,9.50
2015,02,24,15,10,9.50
2015,02,24,15,11,9.50
2015,02,24,15,12,9.50
2015,02,24,15,13,9.50
2015,02,24,15,14,9.50
2015,02,24,15,15,9.50
2015,02,24,15,16,9.60
2015,02,24,15,17,9.60
2015,02,24,15,18,9.60
2015,02,24,15,19,9.60
2015,02,24,15,20,9.60
2015,02,24,15,21,9.60
2015,02,24,15,22,9.60
2015,02,24,15,23,9.60
2015,02,24,15,24,9.60
2015,02,24,15,25,9.70
2015,02,24,15,26,9.70
2015,02,24,15,27,9.70
2015,02,24,15,28,9.70
2015,02,24,15,29,9.70
2015,02,24,15,30,9.70
2015,02,24,15,31,9.70
2015,02,24,15,32,9.70
2015,02,24,15,33,9.80
2015,02,24,15,34,9.80
2015,02,24,15,35,9.80
2015,02,24,15,36,9.80
2015,02,24,15,37,9.80
2015,02,24,15,38,9.80
2015,02,24,15,39,9.80
2015,02,24,15,40,9.80
2015,02,24,15,41,9.80
2015,02,24,15,42,9.80
2015,02,24,15,43,9.80
2015,02,24,15,44,9.70
2015,02,24,15,45,9.70
2015,02,24,15,46,9.70
2015,02,24,15,47,9.70
2015,02,24,15,48,9.80
2015,02,24,15,49,9.80
2015,02,24,15,50,9.80
2015,02,24,15,51,9.80
2015,02,24,15,52,9.80
2015,02,24,15,53,9.80
2015,02,24,15,54,9.80
2015,02,24,15,55,9.80
2015,02,24,15,56,9.80
2015,02,24,15,57,9.80
2015,02,24,15,58,9.80
2015,02,24,15,59,9.80
2015,02,24,16,00,9.70
2015,02,24,16,01,9.70
2015,02,24,16,02,9.70
2015,02,24,16,03,9.70
2015,02,24,16,04,9.70
2015,02,24,16,05,9.70
2015,02,24,16,06,9.70
2015,02,24,16,07,9.70
2015,02,24,16,08,9.70
2015,02,24,16,09,9.70
2015,02,24,16,10,9.80
2015,02,24,16,11,9.80
2015,02,24,16,12,9.80
2015,02,24,16,13,9.80
2015,02,24,16,14,9.80
2015,02,24,16,15,9.80
2015,02,24,16,16,9.80
2015,02,24,16,17,9.80
2015,02,24,16,18,9.80
2015,02,24,16,19,9.90
2015,02,24,16,20,9.90
2015,02,24,16,21,9.90
2015,02,24,16,22,9.90
2015,02,24,16,23,9.90
2015,02,24,16,24,9.90
2015,02,24,16,25,9.90
2015,02,24,16,26,9.90
2015,02,24,16,27,9.90
2015,02,24,16,28,9.90
2015,02,24,16,29,9.90
2015,02,24,16,30,9.90
2015,02,24,16,31,9.90
2015,02,24,16,32,9.90
2015,02,24,16,33,9.90
2015,02,24,16,34,9.90
2015,02,24,16,35,9.90
2015,02,24,16,36,9.90
2015,02,24,16,37,9.90
2015,02,24,16,38,9.90
2015,02,24,16,39,9.90
2015,02,24,16,40,9.90
2015,02,24,16,41,9.90
2015,02,24,16,42,9.90
2015,02,24,16,43,9.90
2015,02,24,16,44,9.90
2015,02,24,16,45,9.90
2015,02,24,16,46,9.90
2015,02,24,16,47,9.90
2015,02,24,16,48,9.90
2015,02,24,16,49,9.90
2015,02,24,16,50,9.90
2015,02,24,16,51,9.90
2015,02,24,16,52,9.90
2015,02,24,16,53,9.90
2015,02,24,16,54,9.90
2015,02,24,16,55,9.90
2015,02,24,16,56,9.90
2015,02,24,16,57,9.90
2015,02,24,16,58,9.90
2015,02,24,16,59,9.90
2015,02,24,17,00,9.90
2015,02,24,17,01,9.90
2015,02,24,17,02,9.80
2015,02,24,17,03,9.80
2015,02,24,17,04,9.80
2015,02,24,17,05,9.80
2015,02,24,17,06,9.80
2015,02,24,17,07,9.70
2015,02,24,17,08,9.70
2015,02,24,17,09,9.70
2015,02,24,17,10,9.70
2015,02,24,17,11,9.70
2015,02,24,17,12,9.70
2015,02,24,17,13,9.70
2015,02,24,17,14,9.70
2015,02,24,17,15,9.70
2015,02,24,17,16,9.70
2015,02,24,17,17,9.70
2015,02,24,17,18,9.70
2015,02,24,17,19,9.70
2015,02,24,17,20,9.70
2015,02,24,17,21,9.70
2015,02,24,17,22,9.70
2015,02,24,17,23,9.70
2015,02,24,17,24,9.70
2015,02,24,17,25,9.70
2015,02,24,17,26,9.70
2015,02,24,17,27,9.70
2015,02,24,17,28,9.70
2015,02,24,17,29,9.70
2015,02,24,17,30,9.70
2015,02,24,17,31,9.70
2015,02,24,17,32,9.70
2015,02,24,17,33,9.70
2015,02,24,17,34,9.60
2015,02,24,17,35,9.60
2015,02,24,17,36,9.60
2015,02,24,17,37,9.50
2015,02,24,17,38,9.50
2015,02,24,17,39,9.40
2015,02,24,17,40,9.40
2015,02,24,17,41,9.30
2015,02,24,17,42,9.30
2015,02,24,17,43,9.20
2015,02,24,17,44,9.20
2015,02,24,17,45,9.10
2015,02,24,17,46,9.10
2015,02,24,17,47,9.00
2015,02,24,17,48,8.90
2015,02,24,17,49,8.90
2015,02,24,17,50,8.80
2015,02,24,17,51,8.70
2015,02,24,17,52,8.60
2015,02,24,17,53,8.60